TimeCDT,TemperatureF,Dew PointF,Humidity,Sea Level PressureIn,VisibilityMPH,Wind Direction,Wind SpeedMPH,Gust SpeedMPH,PrecipitationIn,Events,Conditions,WindDirDegrees,DateUTC
12:53 AM,68.0,66.0,93,30.04,10.0,Calm,Calm,-,N/A,,Clear,0,2012-10-06 05:53:00
1:53 AM,66.9,66.0,97,30.04,7.0,Calm,Calm,-,N/A,,Clear,0,2012-10-06 06:53:00
2:53 AM,66.9,64.9,93,30.03,9.0,Calm,Calm,-,N/A,,Clear,0,2012-10-06 07:53:00
3:53 AM,66.0,64.9,96,30.02,10.0,Calm,Calm,-,N/A,,Clear,0,2012-10-06 08:53:00
4:53 AM,66.0,64.9,96,30.02,10.0,Calm,Calm,-,N/A,,Clear,0,2012-10-06 09:53:00
5:53 AM,66.0,64.9,96,30.03,6.0,Calm,Calm,-,N/A,,Clear,0,2012-10-06 10:53:00
6:53 AM,64.9,63.0,93,30.04,2.0,Calm,Calm,-,N/A,,Clear,0,2012-10-06 11:53:00
7:23 AM,64.4,64.4,100,30.02,2.0,Calm,Calm,-,N/A,,Scattered Clouds,0,2012-10-06 12:23:00
7:53 AM,66.9,66.0,97,30.05,2.0,Calm,Calm,-,N/A,,Partly Cloudy,0,2012-10-06 12:53:00
8:48 AM,73.4,69.8,88,30.04,9.0,North,3.5,-,N/A,,Clear,10,2012-10-06 13:48:00
8:53 AM,73.4,69.8,88,30.04,9.0,North,4.6,-,N/A,,Clear,360,2012-10-06 13:53:00
9:53 AM,78.1,70.0,76,30.07,10.0,NNW,4.6,-,N/A,,Clear,330,2012-10-06 14:53:00
10:53 AM,80.1,69.1,69,30.07,10.0,North,3.5,-,N/A,,Partly Cloudy,350,2012-10-06 15:53:00
11:53 AM,81.0,66.0,60,30.06,10.0,Calm,Calm,-,N/A,,Scattered Clouds,0,2012-10-06 16:53:00
12:23 PM,80.6,66.2,61,30.03,10.0,Calm,Calm,-,N/A,,Overcast,0,2012-10-06 17:23:00
12:33 PM,80.6,66.2,61,30.03,10.0,ESE,3.5,-,N/A,,Overcast,110,2012-10-06 17:33:00
12:53 PM,82.9,66.9,58,30.04,10.0,Calm,Calm,-,N/A,,Mostly Cloudy,0,2012-10-06 17:53:00
1:53 PM,82.9,66.9,58,30.01,10.0,WNW,3.5,-,N/A,,Overcast,290,2012-10-06 18:53:00
2:53 PM,82.0,70.0,67,30.00,10.0,NE,13.8,-,N/A,,Scattered Clouds,40,2012-10-06 19:53:00
3:05 PM,82.4,69.8,66,29.97,10.0,NE,10.4,-,N/A,,Scattered Clouds,40,2012-10-06 20:05:00
3:53 PM,82.0,69.1,65,29.99,10.0,NE,9.2,-,N/A,,Clear,40,2012-10-06 20:53:00
4:53 PM,82.0,69.1,65,29.99,10.0,NE,9.2,-,N/A,,Partly Cloudy,50,2012-10-06 21:53:00
5:53 PM,78.8,68.0,69,29.97,10.0,NNE,10.4,-,N/A,,Clear,30,2012-10-06 22:53:00
6:53 PM,73.9,66.0,76,30.01,10.0,NNE,11.5,-,N/A,,Clear,30,2012-10-06 23:53:00
7:53 PM,71.1,63.0,75,30.03,10.0,NNE,15.0,20.7,N/A,,Scattered Clouds,20,2012-10-07 00:53:00
8:01 PM,71.6,62.6,73,30.01,10.0,NNE,13.8,20.7,N/A,,Mostly Cloudy,20,2012-10-07 01:01:00
8:40 PM,69.8,60.8,73,30.02,10.0,NNE,13.8,-,N/A,,Scattered Clouds,20,2012-10-07 01:40:00
8:53 PM,66.9,61.0,81,30.05,10.0,NNE,15.0,-,N/A,,Clear,20,2012-10-07 01:53:00
9:53 PM,64.0,57.9,80,30.08,10.0,NNE,9.2,-,N/A,,Clear,30,2012-10-07 02:53:00
10:22 PM,64.4,57.2,77,30.06,10.0,NNE,12.7,-,N/A,,Overcast,20,2012-10-07 03:22:00
10:53 PM,63.0,57.9,84,30.09,10.0,NNE,9.2,-,N/A,,Overcast,30,2012-10-07 03:53:00
11:53 PM,61.0,55.9,83,30.09,10.0,NNE,16.1,-,N/A,,Overcast,20,2012-10-07 04:53:00